TimeCDT,TemperatureF,Dew PointF,Humidity,Sea Level PressureIn,VisibilityMPH,Wind Direction,Wind SpeedMPH,Gust SpeedMPH,PrecipitationIn,Events,Conditions,WindDirDegrees,DateUTC
12:15 AM,33.3,25.3,73,30.12,10.0,West,4.6,-,N/A,,Overcast,280,2013-10-24 05:15:00
12:35 AM,33.1,26.4,77,30.12,10.0,West,5.8,-,N/A,,Overcast,280,2013-10-24 05:35:00
12:55 AM,32.9,27.1,79,30.12,10.0,West,5.8,-,N/A,,Overcast,280,2013-10-24 05:55:00
1:15 AM,33.3,27.1,78,30.12,10.0,West,5.8,-,N/A,,Overcast,280,2013-10-24 06:15:00
1:35 AM,33.4,27.1,78,30.13,10.0,West,9.2,-,N/A,,Overcast,280,2013-10-24 06:35:00
1:55 AM,33.6,27.1,77,30.13,10.0,WNW,9.2,-,N/A,,Overcast,290,2013-10-24 06:55:00
2:15 AM,33.8,27.0,76,30.14,10.0,WNW,10.4,-,N/A,,Overcast,290,2013-10-24 07:15:00
2:35 AM,33.4,26.6,76,30.14,10.0,WNW,11.5,-,N/A,,Overcast,290,2013-10-24 07:35:00
2:55 AM,32.9,26.4,77,30.15,10.0,WNW,9.2,-,N/A,,Overcast,290,2013-10-24 07:55:00
3:15 AM,32.9,27.0,79,30.15,10.0,WNW,11.5,17.3,N/A,,Overcast,290,2013-10-24 08:15:00
3:35 AM,32.9,26.6,78,30.15,10.0,WNW,11.5,-,N/A,,Overcast,290,2013-10-24 08:35:00
3:55 AM,32.4,26.2,78,30.16,10.0,WNW,12.7,17.3,N/A,,Mostly Cloudy,300,2013-10-24 08:55:00
4:15 AM,32.9,26.6,78,30.16,10.0,WNW,11.5,16.1,N/A,,Mostly Cloudy,300,2013-10-24 09:15:00
4:35 AM,32.4,26.2,78,30.17,10.0,NW,12.7,-,N/A,,Overcast,310,2013-10-24 09:35:00
4:55 AM,32.0,25.2,76,30.17,10.0,WNW,9.2,17.3,N/A,,Mostly Cloudy,300,2013-10-24 09:55:00
5:15 AM,31.5,23.7,73,30.18,10.0,NW,11.5,-,N/A,,Scattered Clouds,310,2013-10-24 10:15:00
5:35 AM,30.2,23.0,75,30.19,10.0,NW,13.8,17.3,N/A,,Clear,310,2013-10-24 10:35:00
5:55 AM,29.7,21.9,73,30.20,10.0,NW,11.5,17.3,N/A,,Clear,310,2013-10-24 10:55:00
6:15 AM,29.1,21.9,74,30.21,10.0,NW,11.5,-,N/A,,Clear,320,2013-10-24 11:15:00
6:35 AM,28.4,21.7,76,30.21,10.0,NW,9.2,-,N/A,,Clear,310,2013-10-24 11:35:00
6:55 AM,28.2,21.4,76,30.22,10.0,NW,11.5,-,N/A,,Clear,310,2013-10-24 11:55:00
7:15 AM,27.7,21.2,77,30.23,10.0,NW,10.4,-,N/A,,Clear,310,2013-10-24 12:15:00
7:35 AM,27.3,21.2,78,30.24,10.0,NW,8.1,-,N/A,,Clear,310,2013-10-24 12:35:00
7:55 AM,27.5,21.0,77,30.24,10.0,NW,9.2,-,N/A,,Clear,310,2013-10-24 12:55:00
8:15 AM,27.5,21.2,77,30.25,10.0,NW,8.1,-,N/A,,Clear,320,2013-10-24 13:15:00
8:35 AM,28.4,21.6,76,30.26,10.0,NW,6.9,-,N/A,,Clear,310,2013-10-24 13:35:00
8:55 AM,29.7,21.7,72,30.27,10.0,WNW,8.1,-,N/A,,Clear,300,2013-10-24 13:55:00
9:15 AM,31.1,22.1,69,30.27,10.0,WNW,9.2,-,N/A,,Clear,300,2013-10-24 14:15:00
9:35 AM,32.5,22.8,67,30.28,10.0,NW,10.4,-,N/A,,Clear,310,2013-10-24 14:35:00
9:55 AM,34.2,25.5,71,30.29,10.0,NW,12.7,17.3,N/A,,Clear,310,2013-10-24 14:55:00
10:15 AM,35.8,25.5,66,30.29,10.0,WNW,12.7,-,N/A,,Mostly Cloudy,300,2013-10-24 15:15:00
10:35 AM,37.6,25.5,62,30.29,10.0,WNW,9.2,-,N/A,,Overcast,300,2013-10-24 15:35:00
10:55 AM,37.8,23.9,57,30.30,10.0,WNW,12.7,20.7,N/A,,Overcast,300,2013-10-24 15:55:00
11:15 AM,38.3,24.1,57,30.30,10.0,NW,15.0,21.9,N/A,,Mostly Cloudy,310,2013-10-24 16:15:00
11:35 AM,38.7,24.4,57,30.30,10.0,NW,10.4,17.3,N/A,,Scattered Clouds,310,2013-10-24 16:35:00
11:55 AM,39.9,26.2,58,30.31,10.0,NW,12.7,17.3,N/A,,Mostly Cloudy,310,2013-10-24 16:55:00
12:15 PM,39.2,27.0,62,30.31,10.0,NW,9.2,-,N/A,,Overcast,310,2013-10-24 17:15:00
12:35 PM,40.3,27.7,61,30.31,10.0,NW,12.7,17.3,N/A,,Overcast,310,2013-10-24 17:35:00
12:55 PM,41.4,28.2,60,30.30,10.0,NW,16.1,24.2,N/A,,Overcast,320,2013-10-24 17:55:00
1:15 PM,41.0,27.7,59,30.30,10.0,NNW,16.1,21.9,N/A,,Mostly Cloudy,330,2013-10-24 18:15:00
1:35 PM,43.5,26.4,51,30.29,10.0,NW,18.4,24.2,N/A,,Mostly Cloudy,320,2013-10-24 18:35:00
1:55 PM,42.8,25.9,51,30.29,10.0,NW,15.0,23.0,N/A,,Overcast,320,2013-10-24 18:55:00
2:15 PM,44.2,26.1,49,30.29,10.0,NW,15.0,20.7,N/A,,Overcast,320,2013-10-24 19:15:00
2:35 PM,44.1,25.5,48,30.29,10.0,NNW,16.1,21.9,N/A,,Overcast,330,2013-10-24 19:35:00
2:55 PM,43.7,25.0,48,30.29,10.0,NNW,18.4,25.3,N/A,,Overcast,330,2013-10-24 19:55:00
3:15 PM,46.6,25.7,44,30.29,10.0,NNW,11.5,20.7,N/A,,Overcast,330,2013-10-24 20:15:00
3:35 PM,44.1,24.8,47,30.29,10.0,North,16.1,21.9,N/A,,Overcast,350,2013-10-24 20:35:00
3:55 PM,43.7,24.6,47,30.29,10.0,NNW,11.5,17.3,N/A,,Mostly Cloudy,330,2013-10-24 20:55:00
4:15 PM,44.2,25.2,47,30.29,10.0,NW,10.4,16.1,N/A,,Overcast,310,2013-10-24 21:15:00
4:35 PM,45.0,25.3,46,30.29,10.0,NW,11.5,-,N/A,,Overcast,310,2013-10-24 21:35:00
4:55 PM,43.9,25.9,49,30.30,10.0,NW,9.2,-,N/A,,Overcast,320,2013-10-24 21:55:00
5:15 PM,43.3,27.0,52,30.30,10.0,NNW,6.9,-,N/A,,Overcast,330,2013-10-24 22:15:00
5:35 PM,44.1,26.6,50,30.30,10.0,NW,9.2,-,N/A,,Overcast,310,2013-10-24 22:35:00
5:55 PM,42.8,27.0,54,30.30,10.0,NW,6.9,-,N/A,,Mostly Cloudy,320,2013-10-24 22:55:00
6:15 PM,41.0,26.4,56,30.31,10.0,NW,5.8,-,N/A,,Scattered Clouds,310,2013-10-24 23:15:00
6:35 PM,38.3,25.7,61,30.31,10.0,WNW,5.8,-,N/A,,Clear,290,2013-10-24 23:35:00
6:55 PM,36.5,25.9,65,30.31,10.0,WNW,3.5,-,N/A,,Clear,300,2013-10-24 23:55:00
7:15 PM,34.3,25.7,71,30.31,10.0,Calm,Calm,-,N/A,,Clear,0,2013-10-25 00:15:00
7:35 PM,32.5,25.3,75,30.32,10.0,West,3.5,-,N/A,,Clear,280,2013-10-25 00:35:00
7:55 PM,32.2,25.7,77,30.32,10.0,Calm,Calm,-,N/A,,Clear,0,2013-10-25 00:55:00
8:15 PM,31.1,24.8,77,30.32,10.0,WSW,5.8,-,N/A,,Scattered Clouds,240,2013-10-25 01:15:00
8:35 PM,30.9,25.7,81,30.33,10.0,WSW,5.8,-,N/A,,Mostly Cloudy,240,2013-10-25 01:35:00
8:55 PM,32.5,27.0,80,30.33,10.0,SW,3.5,-,N/A,,Overcast,230,2013-10-25 01:55:00
9:15 PM,32.5,27.9,83,30.33,10.0,WSW,4.6,-,N/A,,Overcast,240,2013-10-25 02:15:00
9:35 PM,34.2,28.6,80,30.33,10.0,SW,3.5,-,N/A,,Overcast,230,2013-10-25 02:35:00
9:55 PM,34.3,28.2,78,30.33,10.0,Calm,Calm,-,N/A,,Overcast,0,2013-10-25 02:55:00
10:15 PM,34.3,27.5,76,30.33,10.0,Calm,Calm,-,N/A,,Overcast,0,2013-10-25 03:15:00
10:35 PM,33.4,27.7,79,30.34,10.0,Calm,Calm,-,N/A,,Scattered Clouds,0,2013-10-25 03:35:00
10:55 PM,32.7,27.9,82,30.33,10.0,Calm,Calm,-,N/A,,Scattered Clouds,0,2013-10-25 03:55:00
11:15 PM,28.4,24.1,84,30.34,10.0,Calm,Calm,-,N/A,,Clear,0,2013-10-25 04:15:00
11:35 PM,30.0,26.4,86,30.34,10.0,Calm,Calm,-,N/A,,Mostly Cloudy,0,2013-10-25 04:35:00
11:55 PM,29.5,25.5,85,30.35,10.0,West,3.5,-,N/A,,Scattered Clouds,260,2013-10-25 04:55:00